Hourly Weather Holobutiv

Today, 16 April, Friday

Time Temperature Precipitation Wind Pressure Humidity
00:00 0°C° 0.1 mm 3 mps 734 mmHg 94%
01:00 0°C° 0.1 mm 3 mps 734 mmHg 94%
02:00 0°C° 0 mm 3 mps 733 mmHg 93%
03:00 -1°C° 0.1 mm 4 mps 733 mmHg 92%
04:00 -1°C° 0.1 mm 4 mps 733 mmHg 92%
05:00 -1°C° 0.1 mm 4 mps 733 mmHg 91%
06:00 -1°C° 0.5 mm 5 mps 733 mmHg 91%
07:00 -1°C° 0.5 mm 5 mps 733 mmHg 91%
08:00 0°C° 0 mm 5 mps 733 mmHg 91%
09:00 0°C° 0.7 mm 5 mps 733 mmHg 91%
10:00 +1°C° 0.7 mm 5 mps 733 mmHg 91%
11:00 +1°C° 0.7 mm 6 mps 733 mmHg 90%
12:00 +1°C° 0.6 mm 6 mps 733 mmHg 91%
13:00 +2°C° 0.6 mm 6 mps 733 mmHg 91%
14:00 +2°C° 0.6 mm 6 mps 733 mmHg 91%
15:00 +2°C° 0.6 mm 5 mps 733 mmHg 92%
16:00 +1°C° 0.6 mm 5 mps 733 mmHg 93%
17:00 +1°C° 0.6 mm 5 mps 733 mmHg 94%
18:00 +1°C° 0.4 mm 5 mps 734 mmHg 95%
19:00 +1°C° 0.4 mm 4 mps 734 mmHg 96%
20:00 +1°C° 0.4 mm 4 mps 734 mmHg 97%
21:00 +1°C° 0.2 mm 4 mps 734 mmHg 97%
22:00 +1°C° 0.2 mm 4 mps 734 mmHg 97%
23:00 +1°C° 0.2 mm 4 mps 734 mmHg 97%

Tomorrow, 17 April, Saturday

Time Temperature Precipitation Wind Pressure Humidity
00:00 +1°C° 0.2 mm 4 mps 735 mmHg 96%
01:00 +1°C° 0.2 mm 4 mps 735 mmHg 96%
02:00 +1°C° 0.2 mm 4 mps 735 mmHg 96%
03:00 +2°C° 0 mm 3 mps 735 mmHg 95%
04:00 +2°C° 0 mm 3 mps 735 mmHg 95%
05:00 +2°C° 0 mm 3 mps 735 mmHg 95%
06:00 +3°C° 0 mm 2 mps 735 mmHg 93%
07:00 +4°C° 0 mm 2 mps 735 mmHg 90%
08:00 +4°C° 0 mm 2 mps 736 mmHg 88%
09:00 +5°C° 0 mm 2 mps 736 mmHg 85%
10:00 +6°C° 0 mm 2 mps 736 mmHg 82%
11:00 +7°C° 0 mm 2 mps 736 mmHg 79%
12:00 +7°C° 0 mm 2 mps 736 mmHg 78%
13:00 +7°C° 0 mm 2 mps 736 mmHg 77%
14:00 +8°C° 0 mm 2 mps 736 mmHg 77%
15:00 +7°C° 0 mm 2 mps 736 mmHg 80%
16:00 +7°C° 0 mm 2 mps 736 mmHg 83%
17:00 +6°C° 0 mm 2 mps 736 mmHg 87%
18:00 +6°C° 0 mm 2 mps 736 mmHg 89%
19:00 +5°C° 0 mm 2 mps 736 mmHg 91%
20:00 +5°C° 0 mm 1 mps 736 mmHg 94%
21:00 +5°C° 0 mm 1 mps 736 mmHg 94%
22:00 +5°C° 0 mm 1 mps 736 mmHg 94%
23:00 +5°C° 0 mm 1 mps 736 mmHg 95%

Day after tomorrow, 18 April, Sunday

Time Temperature Precipitation Wind Pressure Humidity
00:00 +5°C° 0 mm 1 mps 736 mmHg 95%
01:00 +5°C° 0 mm 1 mps 736 mmHg 95%
02:00 +4°C° 0 mm 1 mps 736 mmHg 95%
03:00 +4°C° 0 mm 1 mps 736 mmHg 95%
04:00 +4°C° 0 mm 1 mps 735 mmHg 95%
05:00 +4°C° 0 mm 1 mps 735 mmHg 95%
06:00 +4°C° 0 mm 1 mps 735 mmHg 93%
07:00 +5°C° 0 mm 1 mps 735 mmHg 91%
08:00 +6°C° 0 mm 1 mps 735 mmHg 88%
09:00 +6°C° 0 mm 2 mps 735 mmHg 84%
10:00 +7°C° 0 mm 2 mps 735 mmHg 81%
11:00 +8°C° 0 mm 2 mps 735 mmHg 77%
12:00 +8°C° 0 mm 2 mps 735 mmHg 74%
13:00 +9°C° 0 mm 2 mps 734 mmHg 70%
14:00 +10°C° 0 mm 3 mps 734 mmHg 67%
15:00 +10°C° 0 mm 2 mps 734 mmHg 69%
16:00 +10°C° 0 mm 2 mps 734 mmHg 71%
17:00 +10°C° 0 mm 2 mps 734 mmHg 73%
18:00 +9°C° 0 mm 2 mps 734 mmHg 76%
19:00 +8°C° 0 mm 2 mps 734 mmHg 79%
20:00 +7°C° 0 mm 2 mps 734 mmHg 82%
21:00 +8°C° 0 mm 1 mps 734 mmHg 84%
22:00 +8°C° 0 mm 1 mps 734 mmHg 86%
23:00 +7°C° 0 mm 1 mps 734 mmHg 88%

19 April, Monday

Time Temperature Precipitation Wind Pressure Humidity
00:00 +7°C° 0 mm 1 mps 734 mmHg 89%
01:00 +7°C° 0 mm 1 mps 734 mmHg 91%
02:00 +7°C° 0 mm 1 mps 733 mmHg 93%
03:00 +6°C° 0 mm 1 mps 733 mmHg 94%
04:00 +6°C° 0 mm 1 mps 733 mmHg 95%
05:00 +6°C° 0 mm 1 mps 733 mmHg 96%
06:00 +7°C° 0 mm 1 mps 733 mmHg 94%
07:00 +7°C° 0 mm 1 mps 733 mmHg 93%
08:00 +7°C° 0 mm 2 mps 733 mmHg 91%
09:00 +7°C° 0.1 mm 2 mps 733 mmHg 91%
10:00 +7°C° 0.1 mm 2 mps 732 mmHg 91%
11:00 +7°C° 0.1 mm 2 mps 732 mmHg 90%
12:00 +8°C° 0.1 mm 2 mps 732 mmHg 87%
13:00 +9°C° 0.1 mm 2 mps 732 mmHg 83%
14:00 +9°C° 0.1 mm 2 mps 731 mmHg 79%
15:00 +9°C° 0.1 mm 2 mps 731 mmHg 80%
16:00 +9°C° 0.1 mm 2 mps 731 mmHg 81%
17:00 +9°C° 0.1 mm 2 mps 730 mmHg 81%
18:00 +9°C° 0.1 mm 1 mps 730 mmHg 84%
19:00 +8°C° 0.1 mm 1 mps 730 mmHg 87%
20:00 +7°C° 0.1 mm 1 mps 730 mmHg 90%
21:00 +7°C° 0 mm 1 mps 730 mmHg 91%
22:00 +6°C° 0 mm 1 mps 730 mmHg 91%
23:00 +6°C° 0 mm 1 mps 730 mmHg 92%

20 April, Tuesday

Time Temperature Precipitation Wind Pressure Humidity
00:00 +5°C° 0 mm 1 mps 729 mmHg 93%
01:00 +5°C° 0 mm 1 mps 729 mmHg 94%
02:00 +4°C° 0 mm 1 mps 729 mmHg 95%
03:00 +5°C° 0 mm 1 mps 729 mmHg 95%
04:00 +5°C° 0 mm 1 mps 729 mmHg 95%
05:00 +5°C° 0 mm 1 mps 729 mmHg 95%
06:00 +4°C° 0 mm 2 mps 729 mmHg 93%
07:00 +5°C° 0 mm 2 mps 729 mmHg 91%
08:00 +4°C° 0 mm 3 mps 729 mmHg 89%
09:00 +5°C° 0.1 mm 3 mps 728 mmHg 84%
10:00 +7°C° 0.1 mm 3 mps 728 mmHg 78%
11:00 +7°C° 0.1 mm 4 mps 728 mmHg 73%
12:00 +7°C° 0.1 mm 4 mps 728 mmHg 72%
13:00 +8°C° 0.1 mm 4 mps 728 mmHg 70%
14:00 +8°C° 0.1 mm 5 mps 728 mmHg 69%
15:00 +8°C° 0.2 mm 5 mps 728 mmHg 70%
16:00 +8°C° 0.2 mm 5 mps 728 mmHg 71%
17:00 +8°C° 0.2 mm 5 mps 728 mmHg 71%
18:00 +7°C° 0 mm 5 mps 728 mmHg 77%
19:00 +6°C° 0 mm 4 mps 728 mmHg 83%
20:00 +4°C° 0 mm 4 mps 729 mmHg 88%
21:00 +4°C° 0 mm 4 mps 729 mmHg 88%
22:00 +4°C° 0 mm 4 mps 729 mmHg 88%
23:00 +3°C° 0 mm 4 mps 729 mmHg 88%

21 April, Wednesday

Time Temperature Precipitation Wind Pressure Humidity
00:00 +3°C° 0 mm 4 mps 729 mmHg 87%
01:00 +3°C° 0 mm 4 mps 729 mmHg 87%
02:00 +3°C° 0 mm 4 mps 729 mmHg 87%
03:00 +3°C° 0 mm 3 mps 729 mmHg 87%
04:00 +2°C° 0 mm 3 mps 729 mmHg 87%
05:00 +2°C° 0 mm 3 mps 729 mmHg 87%
06:00 +4°C° 0 mm 4 mps 730 mmHg 81%
07:00 +5°C° 0 mm 4 mps 730 mmHg 75%
08:00 +7°C° 0 mm 4 mps 730 mmHg 70%
09:00 +8°C° 0.1 mm 5 mps 730 mmHg 66%
10:00 +9°C° 0.1 mm 5 mps 731 mmHg 62%
11:00 +10°C° 0.1 mm 5 mps 731 mmHg 58%
12:00 +12°C° 0.1 mm 5 mps 731 mmHg 54%
13:00 +13°C° 0.1 mm 5 mps 731 mmHg 51%
14:00 +13°C° 0.1 mm 4 mps 731 mmHg 47%
15:00 +13°C° 0 mm 4 mps 731 mmHg 50%
16:00 +13°C° 0 mm 4 mps 731 mmHg 53%
17:00 +13°C° 0 mm 3 mps 731 mmHg 55%
18:00 +11°C° 0.2 mm 3 mps 731 mmHg 65%
19:00 +9°C° 0.2 mm 2 mps 732 mmHg 75%
20:00 +8°C° 0.2 mm 1 mps 732 mmHg 85%
21:00 +8°C° 0.1 mm 1 mps 733 mmHg 86%
22:00 +8°C° 0.1 mm 1 mps 733 mmHg 87%
23:00 +8°C° 0.1 mm 1 mps 733 mmHg 88%
Show more